Wind_Speed
8 7 8 9 9 10 10 11 11 12 12 11 11 10 8 8 7 7 6 3 4 6 6 7 8 10 11 13 14 15 14 13 13 14 16 18 20 22 23 23 23 23 23 24 25 26 27 28 29 29 29 30 30 29 29 29 28 28 28 27 27 26 25 23 22 22 21 20 20 19 19 18 18 18 19 21 22 23 22 22 23 23 22 21 20
7 8 9 9 8 8 9 11 12 13 13 12 11 9 7 5 5 4 3 6 8 7 8 9 10 11 13 14 14 14 13 12 13 15 17 20 21 22 23 23 23 24 24 26 27 28 29 29 29 29 29 29 29 28 28 28 28 27 27 27 26 26 25 24 23 22 21 21 20 21 20 20 21 22 24 25 24 24 23 23 23 22 21 19 19
8 8 8 8 8 9 10 12 14 15 14 12 10 7 4 3 2 3 7 10 8 8 9 10 11 12 14 14 14 13 12 12 13 16 19 20 22 23 23 23 23 24 25 27 28 28 29 28 28 28 28 27 27 27 27 26 26 26 26 26 25 25 24 24 23 23 22 21 22 22 22 22 24 25 25 24 23 23 22 23 22 20 18 18 17
8 7 8 9 10 12 13 13 13 14 13 10 6 3 2 1 4 8 12 11 9 9 10 11 13 14 14 14 13 11 11 12 15 18 20 21 22 24 24 23 23 24 25 26 27 27 28 27 27 26 26 26 26 25 25 25 24 25 25 25 25 24 24 23 23 23 23 23 23 23 21 21 23 24 24 24 23 22 22 22 20 18 18 19 19
8 7 9 11 12 14 14 13 14 13 9 5 2 4 5 7 10 13 13 11 10 10 11 12 14 15 15 13 11 10 12 15 17 19 20 21 23 24 23 23 23 24 25 25 26 26 26 26 26 26 26 26 26 26 26 26 26 26 26 26 26 24 23 23 23 23 23 24 25 24 20 19 21 22 23 23 22 22 22 22 20 19 20 22 22
8 9 10 13 13 13 14 16 14 7 1 5 8 10 11 13 15 15 13 12 11 12 13 14 15 16 14 11 10 12 15 17 19 20 21 22 23 24 23 23 23 23 24 25 25 25 26 26 27 28 29 30 30 30 30 30 30 29 28 27 26 24 23 23 23 24 25 26 27 25 20 17 18 21 22 22 22 23 25 26 25 24 25 27 28
11 12 13 13 13 13 14 10 3 5 9 12 14 15 16 16 16 15 14 13 13 13 14 14 14 14 13 12 13 15 17 19 20 22 22 23 24 24 24 23 23 24 25 26 26 27 28 30 31 32 33 33 33 33 33 32 31 30 29 28 27 26 25 25 25 26 27 29 29 27 21 17 17 20 23 23 22 25 27 28 29 29 29 32 34
13 12 12 12 14 12 5 5 11 13 15 16 17 17 17 17 16 15 14 13 14 14 15 14 12 13 14 15 16 18 20 22 23 24 24 24 25 26 26 25 26 27 28 29 30 31 31 32 33 33 34 33 33 33 33 33 33 33 32 32 31 30 29 28 28 29 30 32 33 31 25 19 18 20 23 24 25 26 26 27 29 31 32 35 37
12 11 12 12 8 4 11 14 16 16 17 17 17 18 18 17 16 15 14 14 14 15 15 13 12 15 17 18 19 21 23 25 25 25 26 26 27 28 28 28 29 30 31 32 32 32 33 33 33 33 33 33 33 33 33 33 34 35 35 35 35 34 34 33 32 32 33 34 36 35 31 26 22 22 24 26 26 26 25 26 29 31 33 37 39
13 13 10 6 9 15 17 16 17 17 17 17 18 18 17 17 16 15 15 15 15 15 14 13 15 18 19 21 23 24 26 26 26 26 27 28 29 30 30 31 31 32 33 33 33 33 32 32 32 33 33 33 34 34 34 34 35 35 35 35 36 37 37 37 36 35 35 35 36 37 36 34 30 28 27 27 26 25 24 25 28 31 34 39 42
11 8 9 14 17 17 17 17 17 17 17 17 18 17 17 16 16 15 16 16 16 15 15 16 19 20 22 25 26 26 27 27 27 28 28 29 30 31 31 32 32 32 32 32 32 32 33 33 33 34 35 35 35 36 36 36 36 36 36 36 36 37 38 38 38 38 37 37 37 37 38 38 37 34 31 29 26 24 24 25 27 30 35 41 43
12 15 17 17 17 17 17 17 17 16 16 16 17 17 17 16 16 17 17 17 16 16 17 19 22 24 26 27 27 27 28 28 28 29 30 30 31 32 32 32 32 32 32 33 33 34 34 34 34 35 35 36 36 35 35 35 36 36 36 36 37 37 38 38 39 40 40 39 38 37 37 38 39 39 37 33 30 29 27 27 27 29 36 42 44
17 17 17 17 17 17 17 16 16 16 16 16 17 17 17 17 17 18 18 17 17 18 19 22 25 27 28 29 28 28 28 29 29 30 30 31 31 32 32 33 33 34 34 34 34 34 34 34 34 34 34 34 34 34 34 34 34 34 34 35 36 36 37 38 39 40 40 40 39 38 38 38 40 40 40 38 36 35 33 30 28 30 37 42 45
16 16 16 16 16 16 16 16 15 16 17 17 17 17 17 17 18 19 19 18 19 21 22 26 28 29 29 30 29 29 29 30 30 31 31 32 32 34 34 35 35 35 34 34 34 33 33 32 32 32 32 32 32 32 32 32 32 32 32 33 33 34 35 36 38 40 40 41 41 40 39 39 40 40 40 40 40 40 38 35 31 32 38 42 46
16 16 16 16 16 16 16 15 15 16 17 17 17 17 17 18 19 20 20 20 21 23 26 29 30 30 31 31 31 30 30 31 32 33 33 34 34 34 34 34 33 33 32 32 31 31 31 30 30 30 30 30 30 30 31 31 31 30 30 31 31 32 32 34 36 38 39 40 41 41 41 40 41 41 40 41 41 42 43 40 35 34 37 41 45
17 17 17 17 17 16 16 16 16 17 17 17 17 17 18 19 21 22 23 23 24 27 30 31 31 32 32 32 32 32 32 33 34 34 34 34 34 33 32 31 31 30 29 29 29 28 28 28 28 27 27 28 28 28 28 29 28 28 28 29 29 30 31 32 34 35 37 38 40 41 42 42 41 41 41 41 41 43 45 43 39 36 37 40 43
18 18 18 17 17 17 17 17 18 18 18 18 18 19 20 21 23 25 26 26 27 30 32 32 32 33 33 33 33 33 34 34 34 34 33 33 32 32 31 30 29 29 28 28 27 27 27 27 27 26 26 27 27 27 27 27 27 26 27 27 28 28 29 30 32 33 34 37 39 40 42 43 42 41 41 42 41 42 45 46 43 39 37 38 40
19 19 18 18 18 18 19 19 19 19 18 18 19 22 23 24 26 29 29 29 30 32 33 33 33 33 34 34 34 34 33 33 33 32 32 31 30 30 30 29 29 28 27 27 27 28 27 27 27 27 26 26 26 26 26 26 26 26 26 26 27 27 28 29 30 32 33 35 37 39 41 43 43 42 41 42 42 42 43 45 45 43 39 37 38
19 19 19 19 20 20 20 20 19 18 18 20 22 24 26 28 30 31 31 32 33 34 34 33 33 33 34 34 34 34 33 32 31 30 30 29 29 28 28 28 28 27 27 28 28 28 28 27 27 27 27 27 27 27 26 26 26 26 26 27 27 27 28 28 29 30 32 33 35 37 40 42 43 43 42 42 43 43 43 43 44 45 43 40 38
19 19 20 20 20 20 19 18 18 19 21 23 25 27 29 31 31 32 33 34 35 35 34 33 33 33 33 33 32 32 31 30 29 28 28 28 28 27 27 27 27 27 28 28 29 28 28 28 27 27 27 27 27 27 27 27 27 27 28 28 28 28 29 29 29 30 31 33 34 36 39 41 42 43 43 42 42 43 43 43 43 44 45 43 41
19 19 20 20 20 19 18 18 18 21 23 26 28 30 31 32 33 33 34 35 35 35 34 34 33 33 32 31 30 30 29 28 27 27 27 26 27 27 27 27 27 27 28 28 28 28 28 28 27 27 26 27 27 28 29 29 29 30 30 30 30 29 29 29 29 30 31 32 34 36 38 40 42 43 43 43 42 43 44 44 43 43 44 44 43
19 20 20 21 21 21 20 19 20 23 26 28 30 32 32 33 34 35 36 35 35 34 34 33 32 31 30 29 28 28 27 26 26 25 25 25 26 26 26 26 27 27 28 28 28 28 28 27 27 27 27 27 28 29 30 31 31 32 32 32 31 30 30 30 30 31 32 33 34 36 37 38 40 42 43 43 43 43 43 44 44 44 43 43 43
20 21 21 22 22 22 22 22 23 25 28 30 32 33 34 35 36 36 36 35 35 34 33 32 31 29 28 27 27 26 25 24 24 24 24 25 25 26 26 26 27 27 28 28 28 28 27 27 27 27 28 28 29 30 31 32 33 33 33 33 33 32 31 31 31 32 33 34 34 35 36 37 38 40 42 43 44 44 44 44 44 45 45 43 42
22 22 23 23 24 24 24 24 26 28 31 32 33 34 35 36 36 36 36 35 34 33 32 30 29 28 27 26 25 24 23 23 23 24 24 25 25 26 26 26 27 27 27 27 27 27 27 27 27 28 28 29 29 30 32 33 33 33 33 34 34 34 33 33 34 34 35 35 35 35 35 36 37 39 41 43 44 46 46 45 44 45 45 44 43
24 25 25 25 25 26 26 28 30 32 33 34 35 35 36 36 36 36 35 34 33 31 30 29 27 26 25 24 23 23 22 22 23 23 24 25 25 25 25 25 26 26 26 26 26 26 27 28 28 28 29 30 30 32 33 34 33 33 34 34 35 35 34 35 35 36 36 36 36 35 35 36 37 38 40 42 44 46 47 47 46 46 45 45 44
26 26 27 27 27 28 29 31 33 34 35 35 36 36 36 36 36 35 34 32 31 30 29 27 26 25 24 23 22 21 21 21 21 22 23 23 24 24 24 25 25 26 26 26 26 27 28 28 29 29 29 30 32 33 34 35 34 34 34 34 35 35 35 35 36 36 37 37 36 36 35 36 37 38 40 42 44 45 46 48 48 48 47 46 45
27 27 27 28 29 30 32 33 34 35 36 36 37 37 37 36 35 34 33 31 29 28 27 25 24 23 22 21 20 19 19 20 20 21 21 22 23 23 24 24 25 26 27 28 28 28 28 29 29 29 30 32 34 36 36 36 36 35 34 34 35 34 34 35 36 36 36 36 36 36 36 37 38 39 41 42 43 44 45 47 48 50 50 49 48
27 27 28 29 31 32 34 34 35 35 36 37 37 37 36 35 34 32 31 29 28 26 25 23 23 21 20 19 18 18 18 18 19 19 19 21 21 23 24 25 26 27 28 30 29 28 28 29 30 31 32 34 36 37 37 38 37 37 36 35 34 34 34 34 34 35 35 36 36 37 37 38 39 41 42 42 43 44 45 46 47 49 50 50 50
27 28 29 30 32 33 34 34 34 35 35 36 36 35 34 33 32 31 29 28 26 25 23 22 21 19 18 17 17 16 17 17 17 17 18 19 20 22 24 25 26 27 28 30 30 29 28 29 30 31 33 34 35 36 36 37 37 37 36 35 34 34 33 33 33 34 34 35 36 36 37 39 40 42 42 43 43 43 44 45 47 48 48 49 50
28 29 30 31 32 33 33 33 33 33 34 34 34 33 33 31 30 29 27 26 24 23 22 20 19 18 17 16 16 16 16 16 16 17 17 18 20 22 24 25 26 27 28 29 30 29 28 28 28 30 31 32 33 34 34 34 35 35 35 34 34 33 33 33 32 32 33 33 34 35 36 38 40 41 42 43 43 44 44 45 46 47 48 49 49
30 30 31 32 32 32 31 31 31 32 32 32 32 31 30 29 28 27 25 24 23 21 20 19 18 17 16 16 15 15 15 14 14 15 16 17 20 21 23 24 25 26 27 28 29 30 28 26 26 26 27 28 30 31 32 33 33 32 32 32 32 33 33 33 32 32 32 32 33 34 35 36 38 39 40 42 43 43 44 45 45 46 47 48 49
31 31 31 31 31 31 30 30 30 30 31 30 30 29 28 27 26 25 24 23 21 20 19 18 17 17 16 15 14 13 13 12 13 13 15 16 18 19 20 22 24 25 25 26 27 29 29 27 24 22 22 23 25 26 27 29 30 30 29 29 29 30 31 31 31 32 31 31 31 32 33 34 35 37 38 39 41 43 43 44 45 45 46 47 48
30 31 31 31 30 30 30 30 29 29 29 28 27 27 26 26 25 24 23 22 20 19 18 17 17 16 15 14 13 12 11 11 12 12 13 15 16 17 18 19 21 22 23 25 26 27 28 28 26 22 20 19 19 19 19 20 22 25 26 26 26 26 27 28 29 29 29 30 30 30 31 32 33 34 35 36 38 40 41 42 43 44 45 45 46
29 30 30 30 30 29 29 29 28 28 27 26 25 25 24 24 23 22 22 20 19 18 17 17 16 15 14 13 12 11 10 10 10 10 11 12 14 14 15 16 18 19 21 22 24 25 26 27 26 24 22 19 17 17 18 19 20 21 21 22 23 23 24 26 26 26 27 27 28 28 29 30 30 31 32 33 35 36 37 38 39 40 41 42 43
27 27 28 28 28 28 28 27 26 26 25 24 23 22 22 22 22 21 20 19 18 17 17 16 15 14 14 12 11 10 8 8 7 8 8 10 11 12 13 13 15 16 18 20 21 22 24 25 25 24 23 20 18 16 16 18 20 20 19 19 20 21 23 24 25 26 26 27 27 27 27 28 28 28 29 30 32 33 34 35 36 37 38 38 39
25 25 25 25 25 25 25 24 23 22 22 21 21 20 20 20 20 20 19 18 17 17 16 15 15 14 13 12 10 8 7 6 5 5 5 6 8 9 10 11 12 13 15 17 19 20 21 23 24 23 22 21 19 17 14 13 15 16 17 16 17 18 20 21 22 24 25 25 26 26 27 27 26 26 26 27 28 30 31 32 33 34 34 35 36
22 22 22 22 22 22 21 21 20 20 20 19 19 19 19 19 19 18 18 17 17 16 15 15 15 14 13 11 9 8 6 4 3 2 2 3 5 6 7 8 10 11 12 14 16 18 19 21 22 22 22 20 19 17 16 13 12 13 14 13 13 15 17 19 20 21 22 23 23 24 24 24 25 25 25 25 25 26 27 29 30 30 31 32 33
21 20 20 20 20 20 19 19 19 18 18 18 18 18 18 18 18 18 17 17 16 16 15 15 15 14 12 11 9 8 7 5 3 2 1 2 3 5 6 7 8 8 10 11 13 15 17 19 21 21 21 20 18 17 16 14 12 11 11 11 11 11 13 16 18 19 20 21 21 21 21 21 22 23 24 24 23 24 24 24 26 27 28 29 31
19 19 19 18 18 18 17 17 17 17 18 18 17 18 18 17 18 18 17 17 16 16 16 16 15 14 13 12 11 9 8 7 6 5 4 4 5 6 7 8 8 8 9 10 12 13 15 18 20 20 20 19 17 16 15 13 12 10 9 9 9 9 10 13 15 16 17 19 19 20 20 20 20 21 21 22 22 22 22 21 22 23 24 25 26
17 17 17 18 17 17 17 16 16 16 17 17 17 17 18 18 18 17 17 17 16 16 16 16 16 15 14 13 12 11 10 10 9 8 8 8 8 9 9 10 11 11 11 12 13 15 16 18 19 19 19 18 16 15 14 13 11 9 8 7 7 8 8 9 11 12 13 15 16 17 18 19 19 19 19 19 19 19 19 20 19 19 20 22 22
15 15 16 16 16 16 16 16 16 16 16 16 16 16 17 17 17 17 17 17 17 16 16 16 16 15 15 14 14 13 13 12 12 12 11 11 11 11 11 11 13 13 14 15 16 17 18 19 19 18 17 17 16 15 14 13 11 8 6 5 5 5 5 6 7 7 9 11 13 14 15 16 17 18 18 17 17 16 16 16 17 17 16 17 18
12 13 14 14 15 15 16 16 16 16 16 16 16 16 16 16 16 16 16 15 15 16 15 15 15 15 15 15 15 14 14 14 14 13 13 13 13 13 13 13 14 15 16 17 18 18 19 19 18 17 16 16 15 15 15 13 11 9 7 5 3 2 3 3 4 5 6 8 9 11 12 13 14 15 16 16 15 15 14 14 14 15 15 14 13
10 11 11 12 13 14 14 15 15 16 16 17 17 17 18 18 18 18 17 16 16 15 15 15 15 15 16 16 16 16 15 15 15 15 14 14 15 15 16 16 16 17 18 18 19 19 19 18 17 17 16 15 14 14 14 14 12 11 9 7 4 2 2 2 3 4 5 6 7 8 9 10 10 12 13 13 13 13 13 13 13 13 13 13 13
12 12 12 12 13 13 13 14 14 15 16 16 17 17 18 18 19 19 20 20 19 19 19 18 18 18 19 19 19 19 19 19 18 18 18 18 18 18 18 18 18 18 18 18 18 18 17 17 16 15 14 14 14 13 13 13 13 12 11 10 8 5 3 2 4 4 4 5 5 6 7 7 8 8 9 10 10 11 11 11 12 13 13 13 13
14 14 14 15 15 15 15 14 14 14 15 15 16 17 17 18 18 19 19 20 21 22 23 22 21 22 23 23 23 23 23 23 22 22 21 20 19 19 19 19 19 19 18 17 17 16 16 16 15 14 13 13 13 13 12 12 13 13 13 12 11 10 7 4 2 3 3 3 4 4 5 6 6 5 5 6 6 7 8 9 10 10 11 12 13
17 16 16 17 17 17 18 17 17 18 18 18 17 18 18 18 18 18 18 19 20 21 21 21 22 23 24 24 24 24 24 24 23 22 22 21 21 21 21 20 20 19 17 15 14 14 15 16 16 15 13 13 13 13 13 12 12 13 13 14 14 14 13 11 7 3 3 4 4 5 6 7 8 6 5 5 4 3 4 5 6 8 9 10 11
20 20 20 20 20 20 20 20 21 21 22 22 22 22 22 21 21 20 20 20 20 19 19 20 21 22 23 23 23 23 23 23 23 22 22 22 22 22 22 21 20 18 16 14 14 14 16 17 16 15 14 14 14 14 14 13 13 13 13 14 14 15 16 17 16 13 10 9 9 9 10 11 12 11 10 9 8 7 6 6 7 8 9 10 11
24 23 23 23 23 23 23 23 23 23 24 25 26 26 26 26 25 25 24 24 23 22 22 22 22 23 23 23 23 22 22 23 23 23 23 23 23 23 22 21 20 18 17 16 16 17 18 16 14 14 14 15 15 15 15 15 15 15 15 15 15 16 17 18 20 20 18 17 16 16 16 16 17 17 17 16 15 14 12 11 11 12 12 13 13
27 27 26 26 25 26 26 26 26 27 27 27 27 28 29 29 29 29 29 28 28 27 27 27 26 26 25 25 25 24 24 25 24 24 25 24 23 23 23 23 22 21 19 18 18 17 17 15 13 13 14 16 16 16 16 16 16 17 17 17 17 18 19 20 22 23 22 21 21 21 21 21 21 22 23 24 23 22 20 18 16 16 17 18 18
29 30 29 28 27 27 27 27 28 29 30 31 31 30 30 31 31 32 32 32 32 32 31 31 30 29 29 29 28 27 27 27 27 27 27 27 26 26 26 26 25 23 20 18 17 16 14 13 13 15 17 18 19 20 20 20 20 20 20 19 19 20 21 22 23 24 26 25 25 25 24 24 24 26 28 29 30 30 29 27 24 22 22 22 21
33 33 32 32 31 30 29 29 30 31 32 33 35 35 34 34 34 34 35 35 36 35 35 35 34 32 32 31 30 30 30 30 30 30 30 30 30 30 30 28 26 24 22 20 18 17 15 14 15 17 19 21 22 23 24 24 23 23 23 23 23 23 23 24 25 26 27 28 28 28 28 29 30 32 33 35 37 38 37 36 34 32 30 29 27
Wind_Direction
257 247 248 251 253 258 261 261 265 274 286 301 312 312 313 319 323 327 344 26 122 113 82 66 54 49 51 51 52 49 42 37 30 24 22 23 27 29 31 35 42 48 54 59 63 67 71 74 77 79 80 81 81 81 80 80 79 78 76 75 73 71 68 64 61 57 54 51 48 44 39 36 37 44 54 62 64 60 54 46 40 32 25 16 9
234 237 241 242 246 248 256 260 265 276 287 299 303 302 309 320 328 344 37 118 124 100 80 68 59 56 56 55 53 49 44 37 30 30 31 33 37 39 42 47 53 59 63 66 69 72 73 75 76 76 76 76 76 75 75 74 73 72 70 69 67 65 62 59 55 52 49 45 42 37 35 42 54 65 70 68 63 56 48 39 31 23 17 11 5
229 235 234 237 247 251 254 255 261 274 286 294 294 290 293 309 350 66 117 126 114 94 81 69 63 60 61 59 55 51 47 37 37 40 41 43 47 49 52 56 61 65 68 70 71 72 73 73 73 72 71 71 70 70 69 68 67 66 64 62 61 59 57 54 50 47 44 41 37 34 38 55 69 72 67 60 52 46 39 32 26 20 18 17 10
230 236 237 244 255 257 251 252 267 282 291 293 282 260 233 131 108 118 125 120 105 92 79 70 65 62 64 64 59 53 47 44 48 49 48 51 54 55 58 62 66 68 69 70 70 70 70 70 69 68 67 66 65 64 63 63 61 59 58 57 55 54 52 49 46 44 41 38 35 34 43 62 71 67 60 53 47 41 34 30 24 20 24 24 16
231 238 242 244 247 247 251 273 295 298 293 277 192 153 139 127 124 126 123 114 101 89 78 73 69 67 68 69 66 57 51 53 55 54 54 57 59 60 62 65 67 68 68 67 66 66 65 65 65 64 64 63 62 61 60 59 58 56 55 54 53 51 50 48 45 43 39 37 34 35 44 60 65 59 54 51 46 42 36 33 28 25 27 24 17
233 228 231 234 237 249 273 294 301 294 223 141 134 130 129 127 126 125 119 110 96 85 80 78 76 75 74 72 67 58 56 60 59 58 59 61 62 63 65 67 67 67 66 64 64 64 64 65 65 65 65 64 63 62 61 60 59 58 56 55 54 52 51 49 47 44 40 37 35 35 41 53 55 49 46 48 48 44 40 37 36 34 30 24 19
221 218 222 231 251 278 291 291 264 129 121 123 124 124 125 125 124 121 114 104 93 88 87 84 84 85 82 75 64 61 63 64 62 62 63 65 66 66 67 67 67 67 66 66 66 66 67 68 68 68 68 67 66 65 65 64 63 62 60 58 57 55 53 51 49 46 43 40 38 37 37 43 45 40 40 47 51 47 40 36 33 34 31 26 20
214 217 229 252 275 284 271 143 121 116 117 119 121 122 122 121 119 116 109 101 96 95 92 91 92 92 84 73 66 67 69 68 67 67 69 70 70 70 70 70 71 70 70 71 71 71 72 72 72 72 71 70 70 69 68 67 66 64 62 60 58 56 54 53 51 48 46 43 41 40 37 35 33 32 35 40 45 43 39 34 31 32 30 27 22
222 238 255 267 265 180 129 119 115 115 117 118 120 120 118 116 114 111 106 103 102 100 97 98 97 88 78 72 71 74 73 72 73 74 75 75 75 75 75 76 76 76 76 76 76 76 76 76 75 74 73 71 70 69 68 67 67 65 63 60 58 56 55 53 52 50 48 46 44 43 41 39 35 32 32 32 34 35 34 33 30 30 31 30 26
242 252 252 213 145 128 120 116 116 116 118 119 119 117 114 113 111 107 105 105 105 102 102 100 93 85 78 77 78 78 78 78 78 80 81 81 81 81 81 81 81 82 81 81 80 79 78 77 76 74 73 71 69 68 67 65 65 64 62 61 58 56 54 53 51 50 49 47 45 44 44 43 41 38 34 30 27 27 28 29 29 30 34 35 31
230 205 160 139 131 125 120 118 117 117 119 118 116 115 113 111 108 107 107 107 107 107 106 100 92 86 84 84 83 82 82 83 85 86 86 86 86 86 86 86 86 85 84 83 82 79 78 76 74 73 71 70 68 66 65 63 62 61 60 59 58 56 55 53 51 50 48 48 47 46 45 45 44 42 39 33 28 25 26 28 31 35 39 40 36
159 146 138 133 130 126 123 121 120 120 119 118 116 115 112 110 108 109 110 111 113 111 104 98 94 91 89 87 86 86 87 89 91 91 90 90 90 89 89 88 86 85 83 82 80 78 75 73 72 70 68 67 66 64 63 61 60 58 57 56 55 55 54 53 51 49 48 47 47 46 47 47 46 45 42 39 35 33 33 34 37 42 44 45 42
141 139 136 133 129 126 124 123 122 122 121 119 116 114 112 111 111 113 115 117 116 109 104 101 98 96 93 91 91 92 93 94 95 94 93 92 90 89 88 87 85 83 81 79 77 75 73 70 68 67 65 63 62 61 60 58 57 55 53 53 52 52 51 51 51 49 47 46 46 46 47 48 47 46 44 42 40 40 41 43 45 48 48 48 48
138 137 134 131 127 126 125 125 124 122 120 118 116 113 112 114 117 119 119 117 113 108 107 106 103 99 97 95 96 97 97 98 98 96 95 93 91 89 87 85 83 81 78 76 74 72 70 67 64 63 61 60 58 56 55 54 53 51 50 49 49 49 49 49 50 49 47 45 45 45 46 48 48 47 45 43 43 44 44 47 51 53 51 51 52
131 129 127 126 125 126 126 125 123 121 120 118 117 115 115 119 122 121 117 113 111 111 112 110 107 104 102 101 101 101 101 100 99 97 95 93 91 88 86 83 81 79 76 73 71 68 66 64 61 59 57 56 54 52 50 49 49 48 47 46 46 47 47 48 49 48 47 45 44 45 45 47 48 47 46 45 45 46 46 48 53 56 54 53 55
125 124 124 123 124 125 126 125 123 121 120 120 119 117 118 121 123 119 115 114 115 116 116 113 110 107 106 105 105 105 104 102 100 97 94 92 89 86 83 81 78 76 73 70 67 64 61 59 57 55 52 51 49 47 46 46 45 45 44 45 45 45 45 46 48 48 47 46 45 44 45 47 48 48 47 47 47 48 48 49 52 57 56 54 55
121 121 121 122 123 125 125 124 122 121 120 119 118 116 118 121 123 120 117 117 118 119 118 115 112 111 110 109 108 107 105 102 99 95 92 89 85 83 79 77 74 71 68 65 62 59 56 53 51 49 47 47 46 44 43 43 43 44 44 45 46 45 45 45 47 48 47 46 45 45 45 46 47 48 48 48 48 49 50 50 52 56 57 56 55
119 118 119 120 122 123 123 123 122 121 119 118 117 118 121 124 124 122 120 120 121 120 119 116 115 114 113 111 110 108 104 100 96 93 90 86 83 79 75 72 69 66 63 59 56 54 51 49 46 45 44 44 44 44 43 44 44 45 45 46 48 48 47 46 47 48 49 48 47 45 46 46 47 48 49 49 50 50 51 52 53 55 57 58 57
119 117 118 122 123 124 124 124 122 120 118 118 119 121 123 125 125 124 123 124 124 122 121 118 117 115 114 112 109 106 102 98 94 90 87 84 80 76 72 68 65 61 58 54 51 49 47 45 44 43 43 43 45 47 47 48 48 48 49 49 50 50 50 50 49 49 50 50 49 47 47 47 47 48 49 50 50 51 52 54 55 56 57 58 59
121 117 119 124 128 128 128 127 123 120 119 120 121 123 124 125 126 127 127 127 126 124 123 121 119 117 114 111 107 104 100 96 92 88 84 81 77 74 69 65 61 57 54 50 48 45 44 44 43 44 45 46 48 51 52 52 52 52 53 53 53 53 52 52 52 52 51 51 51 50 49 49 48 48 49 50 51 52 53 54 56 58 58 59 60
127 122 120 125 130 133 132 130 126 122 122 122 123 124 126 127 128 130 130 129 128 126 124 123 120 118 114 110 106 102 98 94 90 87 83 79 75 71 67 63 59 55 52 49 46 44 43 43 45 48 49 51 53 55 55 55 55 55 55 56 56 55 54 54 54 54 54 53 53 53 51 51 50 50 50 50 51 53 54 55 56 58 59 60 61
133 129 125 126 132 135 134 131 127 125 125 124 125 127 129 131 132 132 132 131 130 128 126 124 121 119 115 111 106 101 97 94 90 86 82 78 74 70 66 62 58 55 51 49 48 47 45 46 48 51 53 55 57 57 57 57 57 57 57 58 59 58 56 56 56 56 56 56 55 55 54 52 52 52 52 52 53 53 54 56 57 58 59 60 61
137 135 131 131 133 135 134 132 129 129 128 127 129 131 133 135 135 134 134 133 131 129 127 125 122 120 116 111 106 101 98 95 90 86 82 78 74 69 65 60 56 53 50 49 49 49 49 50 52 54 56 58 59 59 59 59 59 59 59 60 60 60 59 58 58 58 58 58 57 56 55 55 54 54 54 54 55 55 55 56 57 59 60 60 61
139 138 136 134 135 136 135 133 132 132 131 131 133 135 137 138 137 136 136 135 133 131 129 126 123 120 115 111 107 103 99 95 90 86 81 77 72 67 62 58 54 51 50 49 50 52 53 54 56 58 58 59 61 62 62 62 62 62 61 61 61 62 62 61 61 60 60 59 59 58 57 57 56 56 56 56 56 56 57 57 57 59 60 61 62
138 138 137 136 136 137 136 136 135 135 134 135 137 139 140 140 139 139 138 137 135 132 129 127 124 120 116 112 108 104 98 94 89 84 79 74 70 65 61 57 54 53 52 53 54 57 59 59 60 61 61 62 64 65 65 65 65 64 64 63 63 63 63 63 62 62 61 61 60 60 59 59 59 59 58 58 58 58 58 58 58 59 60 61 63
134 135 136 136 137 137 137 137 137 137 137 138 140 142 142 142 142 141 140 138 136 133 130 128 125 120 117 113 109 103 98 93 88 82 77 73 69 66 61 58 56 56 56 56 58 61 62 63 64 65 64 66 67 67 67 67 67 67 66 65 64 63 63 63 63 63 63 62 62 61 61 61 61 61 61 61 60 59 59 59 59 60 60 61 62
130 132 133 135 136 137 137 138 138 139 140 142 143 144 145 144 143 142 141 139 136 133 131 129 125 121 118 114 109 104 99 94 89 83 78 74 70 66 64 61 60 59 58 58 59 62 64 65 67 69 69 70 71 70 69 69 69 69 68 67 66 65 64 64 65 65 65 64 64 64 63 63 63 63 63 63 63 62 61 61 61 61 61 61 62
125 128 131 134 136 137 138 138 140 141 142 144 146 146 146 145 144 143 141 139 136 134 132 129 126 123 120 116 111 106 101 96 92 86 82 77 73 70 67 64 62 60 59 58 58 61 64 66 70 73 75 74 73 71 70 69 69 69 69 69 68 67 66 65 65 66 67 67 66 67 66 65 65 64 64 65 65 65 64 64 63 63 63 62 63
121 125 129 133 135 137 138 139 141 143 144 146 147 147 147 146 146 144 142 140 138 136 134 131 129 127 123 118 114 110 106 101 96 91 86 81 77 75 71 67 64 61 60 59 59 61 64 67 72 77 76 74 72 70 68 67 67 66 66 68 69 69 67 67 67 67 67 68 68 68 68 68 67 66 66 66 67 67 66 66 66 66 65 65 64
120 124 129 132 135 136 138 139 141 144 146 147 149 149 148 148 147 145 144 142 140 138 136 135 133 130 126 123 119 115 111 105 100 94 90 85 81 78 74 69 66 63 61 60 60 62 65 69 75 78 75 73 72 69 67 65 64 64 64 65 67 69 69 68 68 67 67 68 69 69 70 70 69 69 68 68 68 69 69 68 68 68 68 68 67
120 125 129 132 135 136 137 139 142 145 147 149 150 150 150 149 148 147 146 145 143 141 140 139 138 135 132 128 124 120 114 108 103 97 92 87 82 78 73 69 66 62 60 59 59 60 62 67 74 77 75 74 75 72 69 65 62 61 63 65 65 66 68 69 68 68 67 66 68 69 70 71 71 71 71 70 70 71 70 70 70 70 70 70 69
120 125 129 133 135 137 138 140 143 146 148 150 151 151 151 152 151 151 150 149 148 147 146 145 144 141 138 134 129 124 119 112 107 100 93 88 82 76 71 67 65 62 60 58 57 58 58 60 65 70 72 74 76 75 73 69 65 60 59 64 68 67 67 67 66 66 66 65 66 67 69 71 72 73 72 72 73 72 72 72 71 71 71 70 70
121 125 129 133 136 138 140 142 145 148 150 151 152 153 154 155 156 156 155 155 154 153 153 152 150 148 144 140 137 131 126 120 111 103 95 88 82 75 70 67 64 62 59 56 55 54 54 54 54 55 58 61 64 65 63 65 67 65 60 60 67 73 72 72 70 68 66 65 64 65 66 67 70 72 74 74 74 74 74 74 73 72 72 71 71
124 127 130 134 137 140 142 145 147 150 151 152 154 155 156 158 160 160 160 160 160 159 158 158 158 156 153 149 146 140 134 126 115 106 99 90 83 75 69 66 63 60 57 54 51 49 49 50 50 49 47 47 48 50 52 55 57 65 69 62 62 73 76 75 76 74 72 70 67 65 64 64 65 67 71 74 74 74 74 74 75 74 74 73 72
127 130 133 136 139 141 144 146 148 150 152 154 155 157 160 162 164 165 166 166 166 165 166 167 167 166 163 159 156 150 142 133 119 108 100 89 79 73 69 64 60 55 52 48 46 44 43 43 44 46 46 44 43 44 53 59 56 62 74 65 58 67 72 71 72 72 72 71 68 66 64 63 63 63 65 68 71 73 73 74 74 74 74 74 73
130 133 136 139 142 144 146 148 150 152 153 155 158 160 163 166 167 169 171 172 172 173 174 176 177 175 173 169 167 163 158 147 131 109 93 80 71 65 63 60 56 50 45 41 40 37 36 35 35 38 41 43 43 41 44 54 54 59 69 64 55 60 64 65 64 62 63 63 62 61 60 59 60 60 61 63 67 70 72 73 72 72 72 72 72
133 137 140 143 145 147 149 152 153 155 157 159 161 164 166 169 171 173 176 177 179 181 182 185 186 186 184 183 181 181 177 172 161 130 84 59 51 47 47 48 45 43 39 34 31 29 27 26 26 28 32 37 41 41 39 42 49 55 60 60 59 59 55 54 53 53 53 54 54 55 56 55 54 54 57 60 63 66 70 72 73 72 72 71 70
140 142 145 148 151 153 155 157 159 161 164 166 168 170 172 175 177 180 182 184 185 188 190 192 195 197 199 200 200 201 202 204 211 224 286 353 0 5 12 17 19 23 26 24 20 18 17 18 18 19 22 27 34 38 37 37 43 50 52 55 60 60 52 47 47 47 48 47 47 47 50 53 52 50 51 53 56 59 63 68 72 73 73 72 72
148 151 154 156 159 161 164 166 168 170 172 174 176 178 180 182 184 186 187 189 191 192 195 198 203 208 211 213 214 218 224 231 241 257 277 299 314 324 332 337 342 349 357 2 4 4 4 5 8 10 12 15 21 29 34 34 37 43 47 49 50 46 41 41 43 45 44 42 41 39 40 44 48 49 50 49 50 51 52 56 63 70 72 73 74
155 160 164 167 169 171 174 176 178 179 180 182 183 184 186 187 189 190 192 194 195 197 200 203 207 214 220 225 228 232 239 246 255 266 277 285 291 301 309 314 318 324 333 339 344 348 349 352 356 0 3 6 9 16 23 28 31 36 39 42 40 36 32 35 39 40 37 34 33 31 31 32 35 40 45 47 48 49 49 46 48 58 69 74 75
160 167 173 177 180 183 185 187 189 190 191 191 191 191 191 191 192 193 194 196 198 200 203 207 211 216 223 230 236 240 245 250 257 265 272 277 282 287 294 300 304 310 318 324 330 334 337 341 346 352 355 356 358 1 7 15 22 28 33 36 38 36 33 32 34 33 29 26 25 25 25 24 24 26 31 36 40 44 46 44 39 40 51 64 72
168 172 176 182 186 189 193 197 200 203 203 204 204 203 203 202 201 200 200 201 204 205 206 210 214 218 225 231 237 242 245 250 254 260 265 270 275 279 283 287 292 300 307 313 320 324 328 332 339 344 347 348 350 351 353 359 6 10 12 17 25 35 38 39 38 33 28 26 24 23 20 19 19 19 21 24 26 29 33 34 32 30 32 40 51
190 190 190 193 193 194 196 199 204 208 211 214 214 215 216 215 215 214 213 214 216 217 218 221 224 226 229 233 239 242 246 249 253 257 260 264 269 275 279 282 287 294 301 307 313 318 322 328 333 338 341 342 344 345 345 347 353 355 355 354 353 357 24 49 53 44 37 33 31 25 17 14 16 15 13 15 17 18 20 20 19 18 18 18 22
212 211 212 216 216 212 209 208 209 210 212 214 216 218 222 223 224 224 224 224 226 228 229 231 235 239 240 241 244 247 251 254 256 258 261 265 269 273 277 281 286 292 298 304 309 314 319 325 330 334 339 339 340 342 342 342 343 345 345 344 339 333 346 46 73 62 46 38 35 26 9 0 8 12 6 7 11 13 13 13 11 9 7 4 3
227 223 223 227 230 231 230 228 228 228 226 223 219 219 222 223 225 226 228 228 229 231 232 233 236 243 246 247 249 251 254 257 260 262 265 267 270 273 276 280 285 291 297 302 307 313 319 324 327 330 334 336 337 339 342 342 341 339 339 338 334 329 327 340 60 71 46 23 21 15 349 333 337 349 349 351 4 10 8 5 3 1 358 354 352
237 236 234 234 236 237 238 238 239 240 242 240 236 232 230 229 228 227 227 228 229 231 234 234 234 239 243 247 248 250 253 256 259 262 265 267 269 272 275 279 284 289 295 300 306 312 317 320 321 321 324 327 328 330 334 336 337 336 334 333 331 326 322 319 318 325 339 334 329 327 317 307 305 307 308 311 319 326 329 331 332 333 333 332 330
241 242 242 243 242 242 242 242 242 243 245 247 247 246 244 242 241 239 236 236 236 235 235 235 235 237 240 243 246 248 251 255 257 261 263 266 269 271 274 277 281 284 289 293 298 302 307 311 313 315 318 322 322 321 323 326 328 328 327 326 324 320 317 313 310 308 310 314 314 312 308 302 299 298 296 295 293 291 283 280 285 290 295 299 302
244 243 243 244 245 246 246 245 245 246 248 249 250 251 252 251 250 249 246 246 246 243 239 239 240 241 242 244 246 248 251 254 257 259 262 264 267 269 272 274 277 280 282 285 290 294 298 302 305 309 316 320 320 318 317 317 318 318 318 317 314 311 308 306 304 303 304 309 312 311 310 308 306 305 304 302 299 296 292 287 285 286 288 290 291
250 248 246 245 245 247 248 249 249 249 250 250 252 253 254 254 254 254 252 251 250 249 247 246 246 245 246 247 247 248 250 252 255 257 259 260 262 265 269 273 274 275 277 281 286 290 290 290 294 303 311 315 316 316 314 313 313 312 311 310 307 305 303 302 301 300 299 301 305 307 307 308 309 309 309 307 305 301 298 295 292 291 291 291 291
255 252 251 250 249 249 249 251 252 252 252 251 252 254 255 256 256 256 255 254 252 251 251 251 250 250 250 250 249 250 251 252 253 254 254 255 257 262 267 270 270 270 272 276 281 283 280 278 285 296 303 305 307 308 308 308 307 306 305 304 304 303 302 301 301 300 298 297 298 300 302 303 305 307 307 307 306 303 301 298 294 291 289 288 287
258 254 251 251 251 250 251 253 254 254 253 251 250 251 252 254 255 256 256 256 255 253 252 252 252 252 253 252 252 252 252 253 252 252 252 253 256 261 265 266 263 262 264 267 268 269 268 269 277 288 293 295 297 299 300 301 302 302 302 301 301 300 300 299 298 297 296 295 295 295 296 297 299 300 300 301 301 301 300 298 296 294 291 289 287
Height
10964 10964 10964 10963 10963 10962 10962 10962 10962 10961 10960 10959 10958 10958 10957 10957 10957 10956 10956 10956 10956 10956 10956 10955 10954 10954 10953 10953 10952 10952 10951 10950 10948 10946 10945 10943 10942 10940 10938 10937 10935 10933 10932 10930 10929 10927 10926 10925 10924 10923 10922 10921 10920 10920 10919 10918 10918 10917 10917 10916 10915 10914 10913 10912 10911 10909 10908 10907 10906 10905 10904 10902 10901 10899 10897 10896 10895 10893 10891 10889 10887 10885 10883 10881 10879
10963 10963 10963 10963 10962 10962 10961 10961 10961 10960 10959 10959 10958 10957 10957 10956 10956 10956 10956 10956 10957 10957 10956 10956 10955 10954 10954 10953 10953 10952 10951 10950 10949 10947 10946 10944 10943 10941 10939 10938 10937 10936 10934 10933 10932 10930 10929 10928 10927 10927 10926 10925 10924 10923 10922 10922 10921 10920 10919 10918 10917 10916 10915 10914 10913 10911 10910 10909 10907 10906 10904 10903 10901 10900 10898 10897 10896 10894 10892 10890 10887 10885 10883 10880 10878
10962 10962 10962 10962 10961 10961 10960 10960 10959 10959 10958 10957 10956 10956 10956 10956 10956 10956 10957 10957 10958 10957 10957 10956 10956 10955 10954 10954 10954 10953 10952 10950 10949 10948 10947 10945 10944 10942 10941 10940 10939 10938 10937 10936 10934 10933 10932 10931 10930 10930 10929 10928 10927 10926 10925 10924 10923 10922 10922 10921 10920 10919 10918 10916 10915 10914 10912 10911 10909 10907 10905 10903 10902 10901 10899 10898 10896 10894 10892 10890 10888 10886 10883 10880 10877
10961 10961 10961 10960 10960 10960 10960 10959 10958 10957 10956 10956 10955 10955 10956 10956 10956 10957 10958 10958 10959 10958 10958 10957 10956 10956 10955 10955 10954 10954 10952 10951 10950 10949 10948 10947 10945 10943 10943 10942 10941 10940 10939 10938 10937 10936 10935 10934 10933 10932 10931 10930 10929 10928 10927 10926 10926 10925 10924 10923 10922 10921 10920 10919 10917 10916 10914 10912 10910 10908 10906 10905 10904 10902 10901 10899 10896 10894 10892 10890 10888 10886 10883 10880 10877
10960 10960 10960 10960 10960 10960 10959 10958 10957 10956 10955 10955 10955 10955 10955 10956 10957 10958 10959 10959 10959 10959 10958 10958 10957 10956 10956 10956 10955 10954 10953 10953 10952 10951 10949 10948 10947 10945 10944 10944 10943 10942 10942 10941 10939 10938 10937 10936 10935 10934 10933 10932 10931 10930 10929 10929 10928 10927 10926 10925 10924 10923 10922 10921 10919 10917 10915 10914 10911 10909 10907 10906 10905 10903 10901 10899 10897 10895 10893 10890 10888 10886 10883 10880 10877
10959 10959 10959 10959 10959 10959 10958 10957 10956 10955 10954 10954 10955 10955 10956 10957 10958 10959 10960 10960 10960 10959 10959 10959 10958 10957 10957 10956 10955 10955 10955 10954 10953 10952 10951 10950 10948 10947 10946 10946 10945 10945 10944 10943 10942 10941 10940 10939 10938 10936 10935 10934 10934 10933 10932 10931 10930 10929 10928 10927 10926 10925 10924 10922 10921 10919 10917 10915 10913 10910 10909 10907 10906 10904 10902 10900 10898 10896 10893 10891 10889 10886 10883 10880 10876
10958 10958 10958 10959 10959 10958 10958 10957 10956 10955 10955 10955 10955 10956 10957 10958 10959 10960 10961 10961 10961 10960 10960 10959 10958 10958 10957 10957 10956 10956 10956 10956 10955 10955 10953 10952 10950 10949 10948 10948 10947 10947 10946 10945 10944 10943 10943 10942 10940 10939 10938 10937 10936 10936 10935 10934 10933 10932 10931 10930 10929 10927 10926 10924 10922 10921 10918 10916 10914 10912 10910 10908 10906 10905 10903 10901 10899 10896 10894 10892 10889 10886 10883 10879 10874
10957 10958 10958 10958 10958 10958 10957 10957 10956 10956 10956 10957 10957 10958 10959 10960 10961 10961 10962 10962 10961 10961 10960 10960 10959 10958 10958 10957 10958 10958 10958 10958 10958 10957 10956 10954 10952 10951 10951 10951 10950 10949 10948 10948 10947 10946 10946 10945 10944 10942 10941 10940 10939 10939 10938 10937 10936 10934 10933 10932 10931 10930 10928 10926 10924 10922 10920 10918 10915 10913 10911 10909 10907 10905 10903 10901 10899 10897 10895 10892 10890 10886 10883 10878 10873
10956 10957 10957 10958 10958 10958 10958 10957 10957 10957 10958 10958 10959 10960 10961 10962 10962 10963 10963 10963 10962 10962 10961 10961 10960 10960 10959 10959 10960 10960 10960 10960 10960 10959 10958 10957 10955 10954 10954 10953 10953 10952 10951 10951 10950 10949 10949 10948 10947 10946 10944 10943 10942 10941 10941 10940 10938 10937 10936 10935 10934 10932 10930 10928 10926 10924 10922 10920 10917 10915 10913 10911 10908 10906 10903 10901 10900 10898 10896 10893 10890 10887 10883 10878 10872
10956 10957 10957 10958 10958 10958 10958 10958 10959 10959 10960 10960 10961 10962 10962 10963 10963 10964 10964 10964 10963 10963 10962 10962 10962 10962 10961 10962 10962 10963 10963 10963 10963 10962 10961 10960 10958 10957 10957 10957 10956 10955 10954 10954 10953 10953 10952 10951 10950 10949 10947 10946 10945 10944 10943 10942 10941 10939 10938 10937 10936 10934 10932 10930 10928 10926 10924 10922 10919 10917 10915 10912 10910 10907 10904 10903 10901 10900 10897 10894 10891 10887 10883 10878 10872
10956 10957 10957 10958 10958 10959 10959 10959 10960 10961 10961 10962 10962 10963 10964 10964 10965 10965 10965 10965 10965 10964 10964 10964 10964 10964 10964 10964 10965 10966 10966 10966 10966 10965 10964 10963 10962 10961 10960 10960 10960 10959 10958 10957 10957 10956 10955 10954 10953 10952 10950 10949 10948 10947 10946 10945 10943 10942 10941 10940 10939 10937 10935 10933 10931 10929 10926 10924 10922 10920 10918 10915 10912 10909 10906 10905 10903 10901 10898 10895 10892 10888 10884 10879 10873
10957 10957 10958 10959 10959 10959 10960 10961 10961 10962 10963 10963 10964 10964 10965 10966 10966 10966 10966 10966 10966 10966 10966 10967 10967 10967 10967 10967 10968 10969 10969 10969 10969 10968 10967 10966 10966 10965 10964 10963 10963 10962 10961 10960 10960 10959 10958 10957 10956 10955 10953 10952 10951 10949 10948 10947 10946 10944 10943 10942 10941 10940 10938 10936 10934 10931 10929 10927 10925 10923 10920 10917 10914 10911 10909 10907 10906 10903 10899 10896 10892 10889 10885 10881 10876
10957 10958 10959 10959 10960 10960 10961 10962 10962 10963 10964 10965 10965 10966 10967 10967 10968 10968 10968 10968 10968 10968 10969 10969 10969 10969 10970 10970 10971 10972 10972 10972 10972 10971 10970 10970 10969 10968 10967 10967 10966 10965 10964 10963 10963 10962 10961 10960 10959 10958 10956 10955 10954 10952 10951 10950 10948 10947 10946 10945 10944 10942 10941 10939 10937 10934 10932 10930 10928 10926 10923 10920 10916 10913 10911 10910 10908 10904 10900 10896 10893 10890 10886 10882 10878
10959 10959 10960 10961 10961 10962 10962 10963 10963 10964 10965 10966 10967 10967 10968 10969 10969 10969 10969 10970 10971 10971 10972 10972 10972 10972 10973 10973 10975 10975 10975 10975 10975 10974 10973 10973 10972 10972 10971 10970 10969 10968 10967 10966 10965 10965 10964 10963 10962 10961 10959 10958 10956 10955 10954 10952 10951 10950 10949 10947 10946 10944 10943 10942 10939 10936 10935 10933 10930 10928 10925 10922 10919 10916 10914 10912 10910 10906 10902 10898 10895 10891 10888 10885 10880
10960 10960 10961 10962 10962 10963 10964 10964 10965 10965 10966 10967 10968 10969 10970 10971 10971 10971 10972 10973 10974 10974 10975 10975 10975 10975 10976 10976 10977 10978 10979 10979 10978 10977 10976 10976 10975 10974 10973 10973 10972 10971 10970 10969 10968 10967 10966 10965 10964 10963 10962 10960 10959 10958 10956 10955 10953 10952 10951 10950 10948 10947 10946 10944 10941 10939 10938 10936 10933 10930 10928 10924 10921 10919 10917 10914 10912 10908 10904 10900 10896 10893 10890 10887 10883
10960 10961 10962 10963 10964 10964 10965 10965 10966 10966 10967 10968 10969 10970 10971 10972 10973 10974 10975 10976 10977 10978 10978 10979 10979 10979 10979 10980 10980 10981 10982 10982 10981 10980 10980 10979 10978 10977 10976 10975 10975 10974 10973 10971 10971 10970 10969 10968 10967 10965 10964 10963 10961 10960 10958 10957 10956 10955 10953 10952 10950 10949 10947 10945 10943 10941 10940 10938 10935 10933 10930 10927 10924 10922 10919 10917 10914 10911 10906 10902 10899 10896 10893 10890 10886
10961 10962 10963 10964 10965 10965 10966 10966 10967 10968 10969 10970 10971 10972 10973 10975 10976 10976 10977 10978 10980 10981 10982 10982 10982 10983 10983 10983 10984 10984 10985 10985 10984 10983 10982 10982 10981 10980 10979 10978 10977 10976 10975 10974 10973 10972 10971 10970 10969 10968 10966 10965 10963 10962 10960 10959 10958 10956 10955 10954 10952 10951 10949 10947 10945 10944 10943 10940 10938 10936 10933 10929 10927 10925 10922 10920 10917 10913 10909 10905 10902 10898 10896 10893 10890
10963 10963 10964 10965 10966 10966 10967 10967 10968 10969 10970 10971 10972 10974 10975 10977 10978 10979 10979 10981 10983 10984 10985 10986 10986 10986 10987 10987 10987 10987 10987 10987 10987 10986 10985 10984 10983 10983 10982 10981 10980 10979 10978 10977 10976 10975 10973 10972 10971 10970 10968 10967 10965 10964 10962 10961 10959 10958 10957 10955 10954 10952 10951 10949 10947 10946 10945 10943 10941 10938 10935 10932 10930 10928 10925 10923 10920 10917 10913 10909 10906 10902 10899 10897 10894
10964 10964 10965 10966 10967 10967 10968 10969 10970 10971 10972 10973 10974 10976 10977 10979 10981 10982 10982 10984 10985 10987 10988 10989 10989 10990 10990 10990 10990 10990 10990 10990 10989 10989 10988 10987 10986 10985 10985 10984 10983 10982 10981 10980 10978 10977 10976 10974 10973 10972 10970 10969 10967 10966 10964 10963 10961 10960 10958 10957 10955 10954 10952 10951 10949 10948 10947 10945 10943 10941 10938 10935 10933 10931 10928 10926 10923 10920 10916 10913 10910 10906 10902 10900 10898
10965 10966 10966 10967 10968 10969 10970 10971 10971 10972 10973 10975 10977 10979 10980 10982 10983 10985 10986 10987 10988 10989 10990 10991 10992 10993 10993 10994 10993 10993 10993 10993 10992 10992 10991 10990 10989 10988 10988 10987 10985 10984 10983 10982 10981 10980 10978 10977 10975 10974 10973 10971 10969 10968 10966 10965 10963 10962 10960 10959 10958 10956 10954 10953 10952 10951 10949 10947 10946 10943 10941 10938 10936 10934 10932 10929 10926 10924 10920 10917 10914 10910 10907 10904 10902
10966 10967 10968 10968 10969 10970 10971 10972 10973 10974 10975 10977 10979 10981 10983 10984 10986 10988 10989 10990 10991 10992 10993 10993 10994 10995 10996 10996 10996 10996 10995 10996 10995 10994 10994 10993 10992 10991 10990 10989 10988 10987 10986 10985 10984 10982 10981 10979 10978 10977 10975 10973 10972 10970 10968 10967 10966 10964 10963 10961 10960 10958 10957 10956 10955 10953 10951 10950 10948 10946 10944 10941 10940 10938 10935 10932 10930 10927 10924 10921 10918 10915 10911 10909 10907
10967 10968 10969 10970 10971 10972 10973 10974 10975 10976 10978 10979 10982 10984 10986 10987 10988 10990 10992 10993 10994 10994 10995 10996 10997 10997 10998 10998 10998 10998 10998 10998 10998 10997 10996 10996 10995 10994 10993 10992 10991 10990 10989 10988 10986 10985 10983 10982 10981 10979 10977 10975 10974 10972 10971 10970 10968 10966 10965 10964 10962 10961 10960 10959 10957 10956 10954 10953 10950 10948 10946 10944 10943 10941 10939 10936 10934 10931 10928 10925 10922 10919 10916 10914 10911
10968 10969 10970 10971 10972 10973 10974 10975 10977 10978 10980 10982 10984 10986 10988 10990 10991 10993 10994 10995 10996 10997 10997 10999 10999 11000 11000 11000 11000 11000 11000 11000 11000 10999 10999 10998 10997 10997 10996 10995 10993 10992 10991 10990 10988 10987 10986 10984 10983 10982 10980 10978 10976 10975 10974 10972 10971 10969 10968 10967 10965 10964 10963 10962 10960 10958 10957 10955 10953 10951 10949 10948 10946 10944 10942 10940 10937 10934 10931 10929 10926 10923 10920 10918 10917
10969 10971 10972 10973 10974 10975 10976 10977 10979 10981 10983 10985 10987 10989 10991 10992 10994 10995 10997 10998 10998 10999 11000 11001 11002 11002 11002 11002 11002 11001 11001 11002 11001 11001 11001 11000 10999 10999 10998 10997 10996 10995 10994 10992 10991 10989 10988 10987 10985 10984 10982 10981 10979 10978 10977 10975 10974 10972 10971 10970 10968 10967 10966 10965 10963 10961 10959 10958 10956 10954 10952 10951 10949 10948 10946 10944 10941 10938 10935 10933 10931 10928 10925 10923 10921
10971 10972 10973 10974 10975 10977 10978 10980 10981 10983 10985 10988 10990 10992 10994 10995 10997 10998 10999 11000 11001 11002 11003 11003 11004 11004 11004 11004 11004 11003 11003 11004 11003 11003 11003 11002 11001 11001 11000 10999 10998 10997 10996 10995 10994 10992 10990 10989 10988 10986 10985 10984 10982 10981 10980 10978 10977 10976 10974 10973 10971 10970 10969 10968 10966 10964 10962 10961 10959 10957 10956 10954 10953 10951 10949 10947 10945 10942 10939 10937 10935 10933 10930 10928 10926
10972 10974 10975 10976 10977 10979 10981 10983 10984 10986 10988 10990 10992 10995 10997 10998 10999 11001 11002 11003 11004 11004 11005 11006 11006 11006 11006 11006 11006 11006 11006 11006 11005 11005 11005 11004 11004 11003 11002 11002 11001 11000 10999 10998 10996 10994 10992 10991 10990 10989 10988 10987 10985 10984 10983 10982 10980 10979 10977 10976 10974 10973 10972 10971 10969 10967 10966 10964 10962 10961 10959 10958 10957 10955 10953 10951 10948 10946 10944 10942 10940 10937 10935 10933 10932
10975 10976 10977 10979 10980 10982 10983 10986 10988 10989 10991 10993 10995 10997 10999 11001 11002 11003 11004 11005 11006 11007 11007 11008 11008 11008 11008 11008 11008 11008 11008 11008 11007 11007 11007 11007 11006 11006 11005 11004 11003 11002 11001 11000 10998 10997 10995 10994 10993 10991 10991 10990 10988 10987 10986 10985 10984 10982 10981 10979 10978 10976 10975 10974 10972 10971 10969 10968 10966 10964 10963 10962 10960 10959 10957 10954 10952 10950 10948 10946 10944 10942 10940 10939 10937
10977 10978 10980 10982 10983 10985 10987 10989 10991 10993 10995 10997 10999 11001 11002 11004 11005 11006 11007 11008 11009 11009 11009 11010 11010 11010 11011 11011 11011 11010 11010 11010 11009 11009 11009 11009 11009 11008 11008 11007 11006 11005 11004 11002 11001 10999 10998 10997 10996 10995 10994 10993 10992 10990 10989 10988 10987 10985 10984 10982 10981 10980 10979 10977 10976 10974 10973 10971 10969 10968 10967 10965 10964 10962 10960 10958 10956 10954 10953 10951 10949 10947 10945 10944 10942
10980 10982 10983 10985 10987 10989 10991 10993 10995 10997 10999 11000 11002 11004 11005 11007 11008 11009 11010 11010 11011 11011 11012 11012 11012 11013 11013 11013 11013 11013 11012 11012 11012 11012 11012 11011 11011 11011 11010 11009 11008 11007 11006 11004 11003 11002 11001 11000 10999 10998 10997 10996 10995 10994 10992 10991 10990 10989 10987 10986 10985 10983 10982 10980 10979 10978 10977 10975 10973 10972 10970 10969 10967 10966 10964 10962 10960 10959 10957 10955 10953 10952 10950 10949 10947
10983 10985 10987 10989 10991 10993 10994 10996 10998 11000 11002 11003 11005 11007 11008 11009 11010 11011 11012 11013 11013 11013 11013 11014 11014 11014 11015 11015 11015 11014 11014 11014 11014 11014 11014 11014 11013 11012 11012 11011 11010 11009 11008 11007 11006 11004 11003 11003 11002 11001 11000 10999 10998 10997 10996 10995 10993 10992 10991 10990 10988 10987 10985 10984 10983 10982 10980 10978 10977 10975 10974 10972 10971 10969 10968 10966 10965 10963 10961 10960 10958 10956 10955 10954 10952
10987 10988 10990 10992 10994 10996 10998 11000 11001 11003 11005 11006 11008 11009 11010 11012 11013 11013 11014 11014 11015 11015 11015 11015 11015 11016 11016 11016 11016 11016 11016 11016 11016 11016 11015 11015 11015 11014 11013 11012 11011 11010 11010 11009 11008 11007 11006 11005 11004 11003 11002 11002 11001 11000 10999 10998 10997 10996 10995 10993 10992 10991 10989 10988 10986 10985 10984 10982 10981 10979 10977 10976 10974 10973 10971 10970 10969 10967 10966 10964 10963 10961 10960 10959 10957
10991 10992 10993 10995 10997 10999 11000 11002 11004 11005 11007 11008 11010 11011 11012 11013 11014 11015 11015 11016 11016 11016 11016 11016 11017 11017 11017 11017 11018 11017 11017 11017 11017 11017 11017 11017 11016 11015 11015 11014 11013 11012 11012 11011 11010 11009 11008 11007 11007 11006 11005 11004 11003 11002 11001 11000 10999 10999 10998 10997 10995 10994 10993 10991 10990 10989 10987 10986 10984 10983 10981 10980 10978 10976 10975 10974 10972 10971 10970 10968 10967 10966 10965 10964 10962
10994 10995 10996 10998 10999 11001 11002 11004 11005 11007 11008 11010 11011 11013 11014 11015 11015 11016 11017 11017 11017 11017 11017 11017 11018 11018 11018 11019 11019 11019 11018 11018 11019 11018 11018 11018 11017 11016 11016 11015 11015 11014 11014 11013 11012 11012 11011 11010 11009 11008 11007 11006 11005 11004 11003 11002 11002 11001 11001 11000 10999 10997 10996 10995 10994 10992 10991 10990 10988 10987 10985 10983 10982 10980 10979 10977 10976 10974 10973 10972 10971 10970 10969 10968 10967
10998 10998 10999 11000 11002 11003 11004 11005 11007 11008 11010 11011 11013 11014 11015 11016 11017 11017 11018 11018 11018 11018 11018 11019 11019 11019 11019 11020 11020 11020 11020 11020 11020 11020 11019 11019 11018 11018 11017 11017 11016 11016 11015 11015 11014 11013 11013 11012 11011 11010 11009 11008 11007 11006 11005 11004 11003 11003 11003 11002 11002 11001 10999 10998 10997 10996 10994 10993 10992 10990 10989 10987 10986 10984 10983 10981 10979 10978 10977 10976 10975 10974 10973 10972 10971
11001 11002 11002 11003 11004 11005 11006 11008 11009 11010 11012 11013 11014 11015 11016 11017 11017 11018 11018 11019 11019 11019 11019 11019 11020 11020 11020 11020 11021 11021 11021 11021 11021 11021 11020 11020 11020 11019 11018 11018 11017 11017 11016 11016 11015 11015 11015 11014 11013 11012 11011 11010 11009 11008 11007 11006 11006 11005 11005 11004 11004 11003 11002 11001 11000 10999 10997 10996 10994 10993 10992 10990 10989 10988 10987 10985 10984 10982 10981 10980 10979 10978 10977 10976 10975
11004 11004 11005 11006 11007 11008 11009 11010 11011 11012 11013 11014 11015 11016 11017 11018 11018 11019 11019 11020 11020 11020 11020 11020 11020 11021 11021 11021 11021 11021 11021 11021 11021 11021 11021 11021 11020 11020 11019 11019 11018 11018 11017 11017 11017 11016 11016 11015 11014 11014 11013 11012 11011 11010 11009 11008 11008 11007 11007 11006 11006 11005 11004 11003 11003 11001 11000 10999 10997 10996 10994 10993 10992 10992 10990 10989 10988 10986 10985 10984 10983 10982 10981 10980 10979
11006 11007 11008 11008 11009 11010 11011 11012 11013 11013 11014 11015 11016 11017 11018 11018 11019 11019 11020 11020 11020 11021 11021 11021 11021 11021 11022 11022 11022 11022 11022 11022 11022 11022 11022 11021 11021 11021 11020 11020 11019 11019 11018 11018 11017 11017 11016 11016 11015 11015 11014 11013 11012 11011 11010 11010 11009 11009 11008 11008 11007 11007 11006 11005 11004 11003 11002 11001 10999 10998 10996 10995 10995 10994 10994 10993 10991 10990 10989 10987 10986 10985 10984 10983 10982
11007 11008 11009 11010 11010 11011 11012 11012 11013 11014 11015 11015 11016 11017 11017 11018 11018 11019 11019 11020 11020 11021 11021 11021 11022 11022 11022 11022 11022 11022 11022 11022 11022 11022 11022 11021 11021 11021 11020 11020 11020 11019 11019 11018 11018 11017 11017 11016 11015 11015 11014 11014 11013 11012 11011 11011 11010 11010 11009 11009 11008 11008 11007 11006 11005 11004 11003 11002 11001 11000 10999 10997 10997 10996 10996 10995 10994 10993 10992 10991 10989 10988 10987 10986 10985
11008 11008 11009 11010 11011 11011 11012 11012 11013 11013 11014 11015 11016 11016 11017 11017 11018 11018 11019 11019 11020 11020 11021 11021 11021 11021 11022 11022 11022 11022 11022 11022 11022 11022 11022 11021 11021 11021 11020 11020 11019 11019 11018 11018 11018 11017 11017 11016 11016 11015 11014 11014 11013 11013 11012 11011 11010 11010 11009 11009 11009 11008 11007 11007 11006 11005 11004 11003 11002 11001 11000 11000 10999 10998 10998 10997 10996 10995 10995 10994 10993 10992 10990 10989 10988
11008 11008 11009 11010 11010 11011 11011 11012 11013 11013 11014 11014 11015 11015 11016 11016 11017 11017 11018 11019 11019 11020 11020 11021 11021 11021 11021 11022 11022 11022 11022 11022 11022 11021 11021 11021 11021 11020 11020 11020 11019 11018 11018 11017 11017 11017 11016 11016 11015 11014 11014 11013 11012 11012 11012 11011 11010 11010 11009 11008 11008 11008 11007 11007 11007 11006 11005 11004 11003 11002 11002 11001 11001 11000 11000 10999 10998 10997 10997 10996 10996 10995 10994 10993 10991
11007 11008 11008 11009 11009 11010 11010 11011 11012 11012 11013 11013 11014 11014 11015 11015 11016 11016 11017 11018 11018 11019 11019 11020 11020 11020 11021 11021 11021 11021 11021 11021 11021 11021 11020 11020 11020 11020 11020 11020 11019 11018 11017 11017 11016 11016 11015 11015 11015 11014 11013 11012 11011 11011 11011 11010 11010 11009 11008 11008 11007 11007 11007 11007 11006 11006 11005 11004 11003 11002 11002 11002 11002 11001 11001 11000 11000 10999 10998 10998 10998 10998 10997 10995 10994
11007 11008 11008 11008 11009 11009 11010 11010 11011 11011 11012 11012 11013 11013 11014 11015 11015 11016 11017 11018 11018 11019 11019 11019 11019 11019 11020 11020 11020 11020 11020 11020 11020 11020 11019 11019 11019 11019 11019 11019 11018 11017 11017 11016 11016 11015 11014 11014 11013 11013 11012 11011 11011 11010 11009 11009 11009 11008 11008 11007 11007 11006 11006 11006 11006 11006 11005 11004 11003 11003 11002 11002 11002 11001 11001 11001 11000 11000 11000 10999 10999 10999 10998 10998 10997
11007 11008 11008 11008 11008 11009 11009 11010 11010 11010 11011 11011 11012 11012 11013 11013 11014 11015 11016 11017 11018 11019 11019 11019 11019 11019 11019 11019 11019 11018 11018 11018 11018 11018 11018 11018 11018 11018 11017 11017 11017 11017 11016 11015 11015 11014 11013 11013 11012 11012 11011 11010 11010 11009 11008 11008 11008 11007 11007 11007 11006 11005 11005 11005 11005 11005 11005 11004 11003 11003 11002 11001 11001 11001 11001 11001 11000 11000 10999 10999 10999 10998 10998 10998 10998
11006 11006 11007 11008 11008 11008 11009 11009 11009 11009 11009 11010 11010 11010 11011 11011 11012 11013 11013 11014 11016 11017 11017 11017 11018 11018 11018 11018 11017 11017 11017 11016 11016 11016 11016 11016 11016 11016 11016 11016 11015 11015 11015 11014 11013 11013 11012 11011 11011 11010 11010 11009 11008 11008 11007 11006 11006 11006 11006 11006 11005 11005 11004 11005 11005 11004 11004 11003 11003 11002 11001 11000 11000 11000 11000 11000 11000 10999 10999 10998 10998 10998 10997 10997 10996
11004 11005 11005 11006 11006 11007 11008 11008 11009 11009 11009 11009 11009 11009 11009 11009 11010 11010 11011 11012 11012 11013 11013 11014 11015 11016 11017 11016 11015 11015 11014 11014 11014 11014 11014 11014 11014 11014 11014 11013 11013 11013 11013 11012 11012 11011 11010 11010 11009 11009 11008 11007 11007 11006 11006 11005 11005 11004 11004 11004 11004 11004 11003 11003 11004 11003 11003 11003 11002 11002 11001 11000 10999 10999 10999 10999 10999 10998 10998 10998 10997 10997 10996 10996 10996
11001 11002 11003 11004 11004 11005 11006 11007 11007 11007 11007 11007 11007 11007 11007 11007 11007 11007 11008 11009 11009 11010 11011 11011 11012 11013 11014 11013 11013 11013 11012 11012 11012 11012 11012 11012 11011 11011 11011 11011 11011 11011 11011 11010 11010 11009 11009 11008 11007 11007 11006 11006 11005 11004 11004 11003 11003 11003 11003 11003 11003 11002 11002 11002 11002 11002 11002 11002 11001 11001 11000 10999 10998 10997 10997 10997 10997 10997 10996 10996 10996 10995 10995 10995 10995
10997 10999 11000 11001 11002 11002 11003 11004 11004 11005 11005 11005 11004 11004 11004 11004 11004 11005 11005 11006 11006 11006 11007 11008 11009 11010 11010 11010 11011 11010 11010 11010 11010 11009 11009 11009 11009 11009 11009 11009 11009 11009 11008 11008 11008 11007 11007 11006 11005 11004 11004 11003 11003 11002 11002 11001 11001 11001 11001 11001 11001 11000 11000 11000 10999 10999 11000 11000 11000 11000 10999 10998 10997 10996 10995 10995 10995 10995 10994 10994 10993 10993 10992 10992 10992
10994 10995 10995 10997 10998 10999 10999 11000 11001 11002 11002 11002 11002 11001 11002 11002 11002 11002 11002 11003 11003 11003 11004 11004 11005 11005 11006 11006 11007 11007 11007 11007 11006 11006 11006 11006 11006 11006 11006 11006 11006 11006 11005 11005 11005 11004 11004 11003 11003 11002 11001 11001 11000 11000 10999 10999 10999 10998 10998 10998 10998 10998 10998 10998 10997 10997 10997 10997 10998 10997 10997 10997 10995 10994 10993 10993 10993 10992 10992 10992 10992 10991 10990 10990 10990
10991 10991 10992 10992 10993 10994 10995 10996 10997 10998 10998 10998 10999 10999 10999 10999 10999 10999 10999 10999 10999 11000 11000 11000 11001 11001 11002 11002 11002 11003 11003 11003 11003 11003 11003 11003 11002 11002 11002 11002 11003 11002 11002 11002 11002 11001 11001 11000 11000 10999 10999 10998 10998 10997 10997 10997 10996 10996 10996 10995 10995 10995 10995 10995 10995 10995 10994 10995 10995 10994 10994 10994 10993 10992 10991 10990 10989 10989 10989 10989 10989 10989 10989 10988 10987
10988 10988 10989 10990 10990 10990 10991 10992 10993 10994 10994 10995 10995 10995 10995 10995 10995 10995 10995 10995 10995 10995 10995 10996 10996 10997 10997 10997 10998 10998 10998 10998 10998 10998 10998 10999 10998 10998 10998 10998 10998 10998 10998 10998 10998 10997 10997 10996 10996 10996 10995 10994 10994 10994 10993 10993 10993 10993 10992 10992 10992 10992 10992 10992 10992 10992 10991 10991 10992 10992 10991 10991 10991 10990 10989 10987 10986 10986 10985 10985 10985 10986 10986 10985 10985
10982 10984 10985 10985 10985 10986 10987 10987 10988 10989 10989 10990 10991 10990 10990 10990 10990 10990 10990 10990 10990 10990 10991 10991 10992 10992 10992 10993 10994 10994 10994 10993 10993 10993 10993 10994 10994 10994 10994 10994 10994 10994 10993 10993 10993 10992 10992 10992 10992 10991 10991 10990 10990 10989 10989 10989 10989 10989 10989 10988 10988 10988 10988 10988 10988 10988 10988 10988 10988 10988 10988 10988 10988 10987 10986 10985 10983 10982 10982 10982 10981 10981 10981 10981 10980